Location: Izdebno
(52.6670°N, 16.2170°E)
Time: 03:57:10
(UTC+02:00)

Transit 2A - Pass Details

Date: 28 February 2024
Orbit: 596 x 956 km, 66.7° (Epoch: 21 April)

Event Time Altitude Azimuth Distance (km) Brightness Sun altitude
Rises 00:51:20 0° 317° (NW) 2,909 - -44.7°
Reaches altitude 10° 00:54:04 10° 335° (NNW) 2,040 - -44.6°
Maximum altitude 00:57:31 20° 24° (NNE) 1,521 - -44.4°
Drops below altitude 10° 01:01:10 10° 72° (ENE) 2,177 - -44.3°
Sets 01:04:12 0° 89° (E) 3,167 - -44.1°
